Probability
0 0 0 0 0 0 0 0 0 0 0 0 0 0 0 0 0 0 0 0 0 0 0 0 0 0 3 3 3 0 0 0 0 0 0 0 0 0 0 0 0 0 0 0
0 0 0 0 0 0 0 0 0 0 0 0 0 0 0 0 0 0 0 0 0 0 0 0 0 3 3 0 0 0 0 0 0 0 0 0 0 0 0 0 0 0 0 0
0 0 0 0 0 0 0 0 0 0 0 0 0 0 0 0 0 0 0 0 0 0 0 0 0 3 3 0 0 0 0 0 0 0 0 0 0 0 0 0 0 0 0 0
0 0 0 0 0 0 0 0 0 0 0 0 0 0 0 0 0 0 0 0 0 0 0 0 0 0 0 3 0 0 0 0 0 0 0 0 0 0 0 0 0 0 0 0
0 0 0 0 0 0 0 0 0 0 0 0 0 0 0 0 0 0 0 0 0 0 0 0 3 0 0 0 0 0 0 0 0 0 0 0 0 0 0 0 0 0 0 0
0 0 0 0 0 0 0 0 0 0 0 0 0 0 0 0 0 0 0 0 0 0 0 0 3 0 0 0 0 0 0 0 0 0 0 0 0 0 0 0 0 0 0 0
0 0 0 0 0 0 0 0 0 0 0 0 0 0 0 0 0 0 0 0 0 0 0 0 0 0 0 0 0 0 0 0 0 0 0 0 0 0 0 0 0 0 0 0
0 0 0 0 0 0 0 0 0 0 0 0 0 0 0 0 0 0 0 0 0 0 0 0 0 0 0 0 0 0 0 0 0 0 3 0 0 0 0 0 0 0 0 0
0 0 0 0 0 0 0 0 0 0 0 0 0 0 0 0 0 0 3 0 0 0 0 0 0 0 0 0 0 0 0 0 0 0 0 3 0 0 0 0 0 0 0 0
0 0 0 0 0 0 0 0 0 0 0 0 0 0 0 0 0 0 0 0 0 0 0 0 0 0 0 0 0 0 0 0 0 0 0 3 0 0 0 0 0 0 0 0
0 0 0 0 0 0 0 0 0 0 0 0 0 0 0 0 0 0 0 0 0 0 0 0 0 0 0 0 0 0 0 0 0 0 0 0 3 0 0 0 0 0 0 0
0 0 0 0 0 0 0 0 0 0 0 0 0 0 0 0 0 0 0 0 0 0 0 0 0 0 0 0 0 0 0 0 0 0 0 3 0 3 0 0 0 0 0 0
0 0 0 0 0 0 0 0 0 0 0 0 0 0 0 0 0 0 0 0 0 0 0 0 0 3 0 0 0 0 0 0 0 0 0 0 0 0 0 0 0 0 0 0
0 0 0 0 0 0 0 0 0 0 0 0 0 0 0 0 0 0 0 0 0 0 0 0 0 0 3 3 3 0 0 0 0 0 0 0 0 0 0 0 0 0 0 0
0 0 0 0 0 0 0 0 0 0 0 0 0 0 0 0 0 0 0 0 0 0 0 0 0 0 0 0 3 3 0 0 0 0 0 0 0 0 0 0 0 0 0 0
0 0 0 0 0 0 0 0 0 0 0 0 0 0 0 0 0 0 0 0 0 0 0 0 0 0 0 0 0 0 0 0 0 0 0 0 0 0 0 0 0 0 0 0
0 0 0 0 0 0 0 0 0 0 0 0 0 0 0 0 0 0 0 0 0 0 0 0 0 0 0 0 0 0 0 0 0 0 0 0 0 0 0 0 0 0 0 0
0 0 0 0 0 0 0 0 0 0 0 0 0 0 0 0 0 0 0 0 0 0 0 0 0 0 0 0 0 0 0 0 0 0 0 0 0 0 0 0 0 0 0 0
0 0 0 0 0 0 0 0 0 0 0 0 0 0 0 0 0 0 0 0 0 0 0 0 0 0 0 0 0 0 0 0 0 0 0 0 0 0 0 0 0 0 0 0
0 0 0 0 0 0 0 0 0 0 0 0 0 0 0 0 0 0 0 0 0 0 0 0 0 0 0 0 0 0 0 0 0 0 0 0 0 0 0 0 0 0 0 0
0 0 0 0 0 0 0 0 0 0 0 0 0 0 0 0 0 0 0 0 0 0 0 0 0 0 0 0 0 0 0 0 0 0 0 0 0 0 0 0 0 0 0 0
0 0 0 0 0 0 0 0 0 0 0 0 0 0 0 0 0 0 0 0 0 0 0 0 0 0 0 0 0 0 0 0 0 0 0 0 0 0 0 0 0 0 0 0
0 0 0 0 0 0 0 0 0 0 0 0 0 0 0 0 0 0 0 0 0 0 0 0 0 0 0 0 0 0 0 0 0 0 0 0 0 0 0 0 0 0 0 0
0 0 0 0 0 0 0 0 0 0 0 0 0 0 0 0 0 0 0 0 0 0 0 0 0 0 0 0 0 0 0 0 0 0 0 0 0 0 0 0 0 0 0 0
0 0 0 0 0 0 0 0 0 0 0 0 0 0 0 0 0 0 0 0 0 0 0 0 0 0 0 0 0 0 0 0 0 0 0 0 0 0 0 0 0 0 0 0
0 0 0 0 0 0 0 0 0 0 0 0 0 0 0 0 0 0 0 0 0 0 0 0 0 0 0 0 0 0 0 0 0 0 0 0 0 0 0 0 0 0 0 0
Height
5866 5866 5866 5866 5866 5866 5866 5866 5866 5866 5865 5866 5866 5866 5866 5865 5865 5865 5865 5865 5865 5864 5864 5864 5864 5864 5863 5863 5862 5862 5861 5861 5861 5860 5859 5859 5858 5858 5857 5857 5857 5856 5856 5855
5866 5865 5865 5865 5865 5865 5865 5865 5865 5865 5864 5864 5864 5865 5864 5864 5864 5864 5864 5864 5864 5863 5863 5863 5863 5862 5862 5861 5861 5860 5860 5859 5859 5858 5858 5857 5857 5856 5856 5855 5854 5854 5854 5853
5865 5865 5864 5864 5864 5864 5864 5864 5864 5863 5863 5863 5863 5864 5863 5863 5863 5863 5863 5862 5862 5862 5862 5861 5861 5861 5861 5860 5859 5859 5858 5858 5857 5856 5856 5855 5855 5854 5854 5853 5852 5852 5851 5851
5864 5864 5864 5863 5863 5863 5863 5863 5862 5862 5862 5862 5862 5862 5862 5862 5862 5862 5861 5861 5861 5860 5860 5860 5860 5860 5859 5859 5858 5857 5857 5856 5855 5855 5854 5853 5853 5852 5851 5851 5850 5850 5849 5849
5863 5863 5863 5862 5862 5862 5862 5861 5861 5861 5860 5861 5861 5861 5861 5860 5860 5860 5860 5860 5859 5859 5858 5858 5858 5858 5857 5857 5856 5855 5855 5854 5854 5853 5852 5851 5850 5850 5849 5849 5848 5848 5847 5847
5862 5862 5862 5861 5861 5861 5860 5860 5859 5859 5859 5859 5859 5859 5859 5859 5858 5858 5858 5857 5857 5857 5856 5856 5855 5855 5855 5854 5854 5853 5853 5852 5852 5851 5850 5849 5848 5848 5847 5846 5846 5845 5845 5844
5861 5860 5860 5860 5859 5859 5859 5859 5859 5858 5857 5858 5857 5857 5858 5857 5856 5856 5855 5855 5855 5854 5854 5853 5853 5853 5852 5852 5851 5851 5851 5850 5849 5848 5848 5847 5846 5845 5845 5844 5843 5843 5842 5842
5859 5859 5859 5858 5858 5857 5857 5857 5858 5857 5856 5856 5855 5855 5856 5854 5854 5853 5853 5853 5852 5852 5852 5851 5850 5850 5850 5849 5849 5848 5848 5847 5846 5846 5845 5844 5843 5843 5842 5841 5840 5840 5839 5839
5857 5857 5857 5856 5855 5856 5855 5854 5855 5854 5854 5853 5853 5853 5853 5852 5852 5851 5851 5850 5850 5849 5849 5848 5848 5847 5847 5846 5846 5845 5845 5844 5844 5843 5842 5841 5841 5840 5839 5838 5837 5837 5836 5835
5854 5854 5854 5854 5853 5853 5853 5852 5852 5852 5851 5851 5851 5851 5851 5850 5850 5849 5848 5848 5847 5847 5846 5846 5845 5845 5844 5844 5843 5842 5842 5841 5841 5840 5839 5838 5838 5837 5836 5835 5834 5833 5832 5832
5851 5851 5852 5851 5850 5850 5850 5850 5849 5849 5849 5849 5848 5851 5849 5848 5847 5847 5846 5845 5844 5844 5843 5843 5842 5842 5841 5841 5840 5839 5839 5838 5838 5837 5836 5835 5834 5833 5832 5831 5830 5830 5829 5828
5847 5848 5848 5848 5847 5847 5847 5846 5846 5847 5846 5845 5845 5849 5845 5845 5844 5843 5842 5842 5841 5841 5840 5840 5839 5839 5838 5838 5837 5837 5836 5835 5834 5833 5833 5832 5831 5830 5829 5828 5827 5826 5825 5824
5844 5844 5844 5844 5845 5844 5843 5843 5842 5843 5842 5842 5842 5845 5842 5841 5841 5840 5839 5839 5838 5837 5837 5836 5836 5835 5835 5834 5834 5833 5832 5832 5831 5830 5829 5828 5827 5826 5825 5824 5823 5822 5821 5820
5840 5840 5841 5841 5840 5839 5839 5839 5839 5839 5838 5838 5838 5839 5838 5837 5837 5837 5836 5835 5835 5834 5833 5833 5832 5832 5831 5831 5830 5829 5828 5828 5827 5826 5825 5824 5823 5822 5821 5820 5819 5818 5816 5815
5836 5836 5836 5836 5835 5835 5835 5835 5835 5834 5834 5834 5834 5834 5834 5833 5833 5833 5832 5832 5831 5830 5830 5829 5828 5828 5827 5827 5826 5825 5824 5824 5823 5822 5821 5820 5819 5818 5816 5815 5814 5813 5812 5810
5832 5832 5832 5832 5831 5830 5830 5831 5830 5830 5829 5829 5829 5829 5829 5828 5828 5828 5827 5827 5827 5826 5825 5825 5824 5823 5823 5822 5822 5821 5820 5819 5818 5817 5816 5815 5814 5812 5811 5810 5809 5808 5806 5804
5827 5827 5827 5827 5826 5826 5826 5826 5825 5825 5824 5824 5824 5825 5824 5823 5823 5822 5822 5822 5821 5821 5820 5820 5819 5818 5818 5817 5817 5816 5815 5814 5813 5812 5811 5809 5808 5807 5806 5805 5804 5802 5800 5799
5822 5821 5821 5821 5822 5821 5824 5821 5820 5819 5819 5818 5818 5818 5818 5818 5817 5817 5816 5816 5815 5815 5814 5814 5813 5813 5812 5812 5811 5810 5809 5808 5807 5806 5804 5803 5802 5801 5800 5799 5797 5796 5794 5792
5816 5816 5815 5816 5815 5815 5817 5815 5814 5813 5813 5812 5811 5811 5811 5811 5811 5811 5810 5809 5809 5808 5808 5808 5807 5806 5806 5805 5804 5804 5802 5801 5800 5799 5798 5797 5795 5794 5793 5792 5790 5789 5787 5786
5810 5810 5810 5809 5808 5809 5811 5809 5807 5807 5806 5806 5805 5804 5804 5804 5804 5805 5803 5803 5802 5801 5801 5800 5800 5800 5799 5798 5797 5796 5795 5794 5793 5792 5791 5790 5788 5787 5786 5784 5783 5782 5780 5778
5803 5803 5803 5802 5801 5801 5803 5802 5801 5801 5800 5799 5798 5797 5797 5797 5797 5796 5795 5795 5795 5794 5793 5793 5792 5792 5791 5790 5789 5789 5788 5786 5785 5784 5783 5782 5780 5779 5778 5777 5775 5774 5772 5770
5796 5796 5795 5794 5794 5796 5794 5793 5794 5793 5792 5791 5790 5790 5789 5789 5789 5788 5788 5787 5787 5786 5785 5785 5784 5784 5783 5782 5781 5780 5779 5778 5777 5776 5775 5773 5772 5770 5769 5768 5766 5765 5763 5762
5788 5789 5788 5787 5788 5787 5786 5785 5785 5784 5783 5783 5782 5782 5781 5781 5781 5780 5780 5779 5779 5778 5777 5777 5776 5775 5775 5773 5773 5772 5771 5770 5769 5767 5766 5765 5763 5762 5760 5759 5757 5755 5754 5753
5781 5780 5779 5779 5779 5778 5778 5777 5776 5776 5775 5774 5773 5773 5773 5772 5772 5772 5771 5770 5770 5769 5769 5768 5767 5767 5766 5765 5764 5763 5762 5761 5760 5759 5758 5756 5754 5753 5751 5750 5748 5746 5745 5744
5773 5772 5771 5771 5771 5770 5769 5768 5768 5767 5766 5765 5765 5764 5764 5763 5763 5762 5762 5761 5760 5760 5759 5758 5758 5757 5757 5756 5755 5754 5753 5752 5751 5750 5749 5747 5745 5744 5742 5740 5738 5737 5736 5734
5765 5764 5763 5763 5763 5761 5761 5760 5759 5758 5758 5757 5756 5756 5755 5754 5753 5752 5752 5751 5750 5750 5749 5749 5748 5747 5747 5746 5745 5745 5744 5743 5742 5740 5739 5738 5736 5734 5733 5731 5729 5727 5726 5725
Wind_Speed
1 2 1 1 1 1 1 1 1 2 2 3 3 3 3 3 2 2 2 2 3 3 3 4 4 4 5 4 4 5 5 5 6 6 6 6 7 6 6 7 7 8 8 8
1 1 1 1 1 1 2 2 2 3 3 4 4 3 3 3 2 3 3 3 3 4 4 4 4 4 4 5 5 5 6 6 6 6 6 6 7 7 7 7 8 8 8 8
1 1 1 1 1 1 2 3 2 3 3 4 3 2 2 2 3 3 3 4 4 4 4 4 4 4 5 6 6 6 6 7 7 7 7 7 7 8 7 8 8 8 8 9
0 1 1 1 2 2 3 3 3 4 4 4 4 3 3 2 3 3 3 4 4 5 5 5 5 5 6 6 6 6 6 7 7 7 7 7 7 7 7 8 8 9 9 9
1 1 2 2 3 3 4 4 4 5 5 4 4 4 3 4 4 3 3 4 4 5 5 6 7 7 7 7 7 7 7 7 7 7 7 7 7 7 7 8 8 9 9 9
3 2 3 4 4 4 5 5 5 5 5 6 6 5 4 4 5 4 4 4 5 5 6 7 8 8 7 7 7 7 7 7 8 8 8 8 8 8 8 9 9 9 9 10
4 4 4 5 5 5 5 6 6 6 6 7 7 6 5 6 5 5 5 6 6 7 7 7 8 9 8 8 8 8 8 8 8 9 9 9 9 9 10 10 10 10 10 11
5 5 6 6 6 5 6 7 7 7 7 7 8 8 7 7 6 6 7 7 7 8 8 8 8 8 9 9 9 9 9 9 9 9 9 9 9 10 10 11 11 11 11 12
7 7 6 7 7 7 8 8 8 8 8 8 8 8 8 7 7 7 8 8 8 8 9 9 8 8 9 9 9 9 9 9 9 9 9 9 10 11 11 11 12 12 12 12
8 8 8 8 8 8 8 9 8 9 9 9 9 8 8 8 8 8 8 9 9 9 10 9 9 9 9 9 10 9 9 9 9 9 9 10 10 11 11 12 12 13 13 13
9 9 9 9 9 9 9 9 10 10 10 11 11 10 10 9 8 8 9 9 10 11 11 11 11 10 9 9 9 10 10 10 10 10 10 11 11 12 12 12 13 13 13 14
11 11 11 11 10 11 10 11 11 11 11 12 12 12 11 11 10 10 10 10 10 11 11 11 11 11 10 10 10 11 11 11 11 12 12 12 12 12 13 13 13 14 14 14
12 12 12 12 12 12 12 12 13 13 13 13 13 12 12 12 11 11 11 11 11 12 12 12 12 12 11 12 12 12 12 11 12 12 13 13 13 14 14 14 14 14 14 15
12 13 13 13 13 14 13 13 13 14 14 14 15 14 13 13 13 13 12 13 13 14 14 14 14 13 13 13 13 13 12 12 12 13 13 14 14 14 14 14 15 16 16 16
14 14 14 15 15 15 14 14 14 15 15 15 15 15 15 14 14 14 14 14 15 15 15 16 15 14 14 14 14 14 14 13 14 14 15 15 14 15 15 15 16 17 17 18
15 16 16 16 16 16 15 15 15 15 16 16 16 16 16 17 16 16 15 15 15 16 16 16 16 16 16 15 15 15 15 16 16 16 16 16 16 16 16 17 17 18 19 19
17 17 17 17 17 18 17 16 17 17 17 18 18 18 18 18 18 17 17 17 17 16 17 17 17 17 17 17 17 17 17 18 17 17 18 18 18 18 18 18 19 20 20 20
19 18 18 18 18 19 17 17 18 18 18 18 19 20 19 20 20 19 18 19 19 19 19 18 18 18 18 19 19 18 19 19 19 19 20 20 20 20 20 20 20 21 21 21
20 20 21 21 21 21 19 19 20 21 20 20 21 20 20 21 21 20 19 20 21 21 20 20 20 20 20 20 21 21 21 21 21 21 21 21 21 21 22 22 22 22 22 22
22 22 23 23 24 23 21 21 22 23 22 22 22 22 22 22 22 22 21 21 22 22 22 21 22 22 22 22 23 23 23 23 23 23 22 22 23 23 23 23 23 23 23 23
23 23 24 25 26 25 23 23 23 24 23 23 23 24 24 23 23 23 23 23 23 23 24 24 24 24 24 24 25 24 24 25 25 25 24 25 25 25 24 24 25 25 25 25
24 25 25 26 27 26 26 26 25 25 26 26 25 25 25 25 24 24 24 24 24 24 25 25 25 25 25 26 26 26 26 26 26 26 26 26 26 25 26 26 26 26 26 26
26 26 26 27 27 27 27 27 27 27 27 27 27 26 27 27 27 27 26 25 26 26 25 25 26 26 26 26 27 27 27 27 27 27 27 27 27 27 27 27 27 28 28 27
26 27 28 28 27 27 27 28 28 28 28 28 27 27 28 29 29 28 28 27 27 27 27 27 27 27 27 27 27 27 27 27 27 27 27 27 27 28 28 29 29 29 29 28
26 27 28 28 28 29 29 30 30 29 29 28 28 28 28 28 29 29 30 29 28 28 28 29 29 29 28 28 28 28 28 28 28 28 28 28 28 29 29 29 29 29 29 28
27 28 28 28 28 30 30 30 31 30 30 29 29 29 28 29 29 29 30 31 31 30 29 29 29 29 29 29 29 29 29 29 29 29 29 29 29 30 30 30 30 30 30 29
Wind_Direction
248 237 244 284 300 276 258 243 233 238 239 247 255 268 268 269 271 272 287 317 310 302 292 291 297 306 311 315 318 310 303 302 296 292 291 289 287 285 287 289 280 279 281 278
255 241 209 258 322 252 245 258 260 258 255 257 265 272 263 257 267 285 298 301 295 299 294 293 302 307 308 312 308 306 303 299 297 298 294 291 287 280 278 279 279 282 283 281
244 217 205 232 303 291 259 262 273 269 266 263 268 274 254 245 261 278 291 290 288 292 291 286 292 294 299 304 303 301 300 299 299 299 298 290 286 282 276 279 280 281 286 281
229 240 240 254 266 280 262 259 259 262 268 268 276 269 262 261 261 259 274 287 289 287 287 280 284 289 293 296 299 298 296 297 298 298 299 293 289 289 283 283 283 283 285 284
248 275 286 276 274 279 270 264 266 264 265 263 271 265 263 270 275 275 276 286 285 284 288 286 288 289 292 292 293 293 291 292 292 290 291 293 289 287 286 284 284 285 286 286
255 271 288 294 290 286 282 273 278 280 266 266 264 259 262 278 284 285 280 283 289 287 289 286 289 289 289 289 290 290 291 289 287 288 289 290 289 287 286 286 286 283 283 284
261 270 279 287 289 285 273 275 274 269 261 265 267 267 275 277 286 292 289 290 295 292 289 292 289 288 287 287 286 288 291 289 286 289 291 291 289 289 288 286 285 284 282 283
265 272 277 280 282 277 272 275 270 265 261 261 269 276 283 279 288 292 288 287 293 294 291 293 294 290 287 284 282 281 284 287 285 287 291 293 290 291 290 286 284 284 283 285
268 273 277 276 277 278 279 279 274 268 271 273 270 277 281 283 290 292 286 284 290 295 294 291 290 290 291 288 282 279 279 281 282 282 287 292 293 292 290 287 285 286 286 286
273 276 278 279 279 276 279 276 274 267 271 276 274 275 278 285 290 287 285 287 288 291 291 290 290 291 290 289 286 284 284 282 281 282 284 288 290 290 289 287 286 284 283 285
276 277 275 273 274 275 274 272 271 268 271 271 273 276 282 287 289 290 288 287 285 287 287 287 288 289 288 285 282 283 285 285 285 284 285 288 290 290 289 288 287 286 285 285
270 273 274 272 270 270 270 267 266 265 271 273 276 279 281 285 287 288 291 290 287 287 287 288 287 286 285 283 280 281 284 284 287 288 289 289 290 291 290 289 289 287 285 284
271 272 275 273 271 269 268 269 268 267 268 273 277 281 277 280 282 286 290 289 288 285 285 286 286 286 286 284 282 281 282 282 283 286 286 287 287 289 289 288 288 289 286 285
271 272 271 272 273 273 271 269 271 270 269 272 276 276 276 278 280 281 284 286 288 284 283 285 284 284 285 284 283 282 283 282 283 284 284 285 286 288 289 287 287 289 288 287
270 270 271 271 272 273 273 272 272 271 270 270 273 273 276 278 279 280 282 284 286 286 284 284 285 283 284 283 282 282 283 282 283 284 284 284 284 286 287 286 287 288 288 287
270 270 271 271 271 272 274 275 275 273 270 269 268 270 271 273 276 280 280 282 284 284 283 282 282 281 281 280 279 280 283 283 284 284 284 285 285 285 285 286 287 288 290 289
270 271 273 273 270 272 274 276 274 273 272 269 267 267 268 271 274 278 280 282 282 280 280 280 278 278 279 278 278 279 281 284 284 283 284 286 286 285 284 285 287 288 290 291
271 271 273 274 272 269 274 275 275 275 275 273 270 270 270 271 272 275 277 277 278 277 277 276 276 277 278 280 280 280 282 283 284 284 285 285 284 283 284 285 288 289 290 291
270 270 271 273 272 272 272 274 274 274 276 277 277 274 274 274 273 273 275 275 274 275 275 275 276 276 277 279 281 281 282 284 284 285 285 284 283 283 284 285 287 287 289 289
268 268 270 272 273 274 275 274 274 276 276 278 278 277 276 275 275 273 273 273 274 274 275 276 277 278 278 279 280 281 282 284 284 283 283 283 282 283 284 285 287 287 288 287
268 269 271 273 273 274 275 273 273 274 276 276 277 278 277 275 275 274 274 275 275 276 275 276 276 277 278 278 279 279 280 281 282 282 282 282 282 281 283 284 285 286 286 286
268 270 272 273 274 275 276 274 274 276 276 277 277 277 277 276 276 274 274 274 274 275 275 275 274 276 277 278 278 278 279 279 281 281 283 282 281 280 281 282 283 284 284 285
269 270 271 272 274 275 274 275 276 277 278 278 279 278 277 276 275 274 274 274 277 277 275 275 275 275 276 278 279 279 279 279 279 280 281 281 281 281 281 281 281 282 282 284
268 270 271 271 272 272 272 275 276 277 278 279 278 277 275 275 275 275 274 274 276 276 275 275 274 274 276 277 278 278 279 279 279 279 279 280 281 281 281 281 280 281 281 282
268 269 270 271 272 274 274 275 275 276 276 276 277 277 277 276 276 275 274 275 276 276 274 274 274 275 276 277 279 278 278 279 280 280 279 280 281 282 282 282 281 281 281 281
267 269 269 270 271 273 275 275 275 275 275 274 274 276 277 278 279 277 275 274 274 275 275 275 275 277 277 276 276 277 277 277 278 279 279 279 280 281 282 282 281 281 281 279